Simultaneous Nadir Overpasses (SNOs) Predictions

Prediction of SNOs between AQUA and NOAA-19 Satellite Orbit:

Table of predicted SNOs for the next 14.0 days since TLE Epoch: 5/31/2025
Index Date (AQUA) Time (AQUA) Lat,Lon (AQUA) SZA (AQUA ) Date (NOAA-19) Time (NOAA-19) Lat,Lon (NOAA-19) SZA (NOAA-19 ) Distance(km) Time Diff (sec)
1 06/02/2025 04:20:06 -75.71, -59.68 126.51 06/02/2025 04:19:05 -75.70, -59.65 126.52 1.01 61
2 06/02/2025 05:09:26 75.76, 107.83 53.54 06/02/2025 05:09:56 75.76, 107.81 53.54 0.94 30
3 06/04/2025 06:27:28 75.68, 88.62 53.22 06/04/2025 06:26:15 75.65, 88.43 53.18 6.22 73
4 06/04/2025 07:16:47 -75.76,-103.94 126.72 06/04/2025 07:17:17 -75.76,-103.97 126.71 0.66 30
5 06/06/2025 08:34:49 -75.70,-123.21 127.00 06/06/2025 08:33:36 -75.66,-123.35 127.05 5.90 73
6 06/06/2025 09:24:09 75.76, 44.27 53.06 06/06/2025 09:24:26 75.74, 44.23 53.05 2.02 17
7 06/08/2025 10:42:01 75.23, 26.36 52.39 06/08/2025 10:40:56 75.12, 23.20 52.19 90.58 65
8 06/08/2025 11:31:29 -75.75,-167.48 127.15 06/08/2025 11:31:47 -75.75,-167.56 127.15 2.17 18
9 06/10/2025 12:49:22 -75.29, 174.40 127.73 06/10/2025 12:48:15 -75.21, 171.69 127.89 77.45 67
10 06/10/2025 13:38:50 75.76, -19.29 52.70 06/10/2025 13:38:55 75.76, -19.25 52.70 1.21 5
11 06/12/2025 15:46:09 -75.74, 128.99 127.46 06/12/2025 15:46:16 -75.75, 128.91 127.45 2.05 7



Historial Predications of SNOs between AQUA and NOAA-19
